Regional Weather Roundup
Issued by NWS

Home | Current Version | Previous Version | Text Only | Print | Product List | Glossary On
Versions: 1 2 3 4 5 6 7 8 9 10 11 12 13 14 15 16 17 18 19 20 21 22 23 24 25 26 27 28
000
ASUS44 KJAN 280320
RWRMS

MISSISSIPPI HOURLY WEATHER ROUNDUP
NATIONAL WEATHER SERVICE JACKSON MS
1000 PM CDT TUE SEP 27 2016

NOTE: "FAIR: INDICATES FEW OR NO CLOUDS BELOW 12,000 FEET WITH NO
SIGNIFICANT WEATHER AND/OR OBSTRUCTIONS TO VISIBILITY.

MSZ001>002-007>008-010>013-018>021-025>028-034>036-280400-
NORTHWEST MISSISSIPPI

CITY           SKY/WX    TMP DP  RH WIND       PRES   REMARKS
BATESVILLE     FAIR      53  50  88 CALM      29.98S
CLARKSDALE     CLEAR     61  50  67 CALM      29.98S
CLEVELAND      FAIR      61  52  71 CALM      29.98R
GREENWOOD      PTCLDY    59  55  87 CALM      29.97S
GREENVILLE     PTCLDY    62  53  72 CALM      29.98R
OXFORD         FAIR      55  46  71 CALM      29.99S
TUNICA         CLEAR     55  46  71 CALM      29.98S
WINONA         FAIR      61  53  75 CALM      29.97S
$$

MSZ003>006-009-014>017-022>024-029>033-037>039-280400-
NORTHEAST MISSISSIPPI

CITY           SKY/WX    TMP DP  RH WIND       PRES   REMARKS
COLUMBUS AFB   PTCLDY    65  56  72 NW2       29.94R
CORINTH          N/A     54  50  87 CALM      29.96S
GOLDN TRIANGLE PTCLDY    70  48  46 NW5       29.95S
STARKVILLE     FAIR      64  54  68 CALM      29.97S
TUPELO         NOT AVBL
$$

MSZ040-058-280400-
CENTRAL MISSISSIPPI

CITY           SKY/WX    TMP DP  RH WIND       PRES   REMARKS
JACKSON INTL   CLOUDY    70  60  70 CALM      29.97R
JACKSON HAWKNS CLOUDY    71  58  63 NW3       29.98S
MADISON        FAIR      68  57  68 CALM      29.98S
MERIDIAN KEY   MOCLDY    76  62  62 CALM      29.96R
MERIDIAN NAS   MOCLDY    73  61  65 W5        29.95S
VICKSBURG VKS  PTCLDY    68  64  88 CALM      29.97S
$$

MSZ059>079-280400-
SOUTH MISSISSIPPI

CITY           SKY/WX    TMP DP  RH WIND       PRES   REMARKS
BROOKHAVEN     FAIR     N/A N/A N/A CALM      30.00R
HATTIESBURG    PTCLDY    76  68  76 NW6       29.96R
LAUREL         FAIR      73  68  84 CALM      29.96R
MCCOMB         PTCLDY    73  68  84 N6        29.98R
NATCHEZ        CLOUDY    72  64  78 CALM      29.99S
PINE BELT      PTCLDY    73  63  68 NW3       29.96S
$$

MSZ080>082-280400-
COASTAL MISSISSIPPI

CITY           SKY/WX    TMP DP  RH WIND       PRES   REMARKS
BILOXI         PTCLDY    79  77  94 W1        29.93R
PASCAGOULA     CLEAR     71  71 100 CALM      29.93S
GULFPORT       PTCLDY    78  74  87 W3        29.93R
$$

LAZ007>009-015>016-023>026-280400-
NORTHEAST LOUISIANA

CITY           SKY/WX    TMP DP  RH WIND       PRES   REMARKS
BASTROP        FAIR      64  62  92 CALM      30.01R
TALLULAH/VBURG MOCLDY    66  61  84 CALM      29.98R
$$




USA.gov is the U.S. government's official web portal to all federal, state and local government web resources and services.